832  
NZUS99 KTBW 131617  
RWRTPA  
FLORIDA REGIONAL WEATHER ROUNDUP  
NATIONAL WEATHER SERVICE TAMPA BAY RUSKIN FL  
1100 AM EST WED DEC 13 2017  
 
NOTE: "FAIR" INDICATES FEW OR NO CLOUDS BELOW 12,000 FEET WITH NO  
SIGNIFICANT WEATHER AND/OR S TO VISIBILITY
.  
 
 
STATION/POSITION
 
 
 
FLZ042-048>051-055-056-060-061-131700-  
EXTRA STATIONS  
 
CITY SKY/WX TMP DP RH WIND PRES REMARKS
 
EVERGLADES CTY NOT AVBL  
CRYSTAL RIVER FAIR 54 30 40 CALM 30.16S  
SEBRING FAIR 59 32 36 NW6 30.14F  
EGLIN AFB MOSUNNY 47 20 33 N5 30.16S WCI 45  
CANAVERAL SUNNY 56 31 39 NW12 30.11S  
 

 
FLZ001>010-012>015-131700-  
PANHANDLE FLORIDA  
 
CITY SKY/WX TMP DP RH WIND PRES REMARKS
 
PENSACOLA SUNNY 48 25 40 CALM 30.17S  
PENSACOLA NAS MOSUNNY 48 24 39 E8 30.17S WCI 44  
MILTON NAS MOSUNNY 47 24 40 CALM 30.16  
CRESTVIEW SUNNY 48 24 39 E6 30.18S WCI 45  
VALPARAISO MOSUNNY 48 22 35 NE5 30.16F WCI 46  
MARY ESTHER SUNNY 49 22 34 CALM 30.16S  
PANAMA CITY N/A 49 32 52 NE5 30.16F WCI 47  
TYNDALL AFB SUNNY 49 27 43 NE6 30.17S WCI 46  
APALACHICOLA SUNNY 52 28 39 VRB3 30.17R  
 
STATION/POSITION
 
 
29.2N 88.2W  
28.8N 86.0W  
 

 
FLZ011-016>039-131700-  
NORTH FLORIDA  
 
CITY SKY/WX TMP DP RH WIND PRES REMARKS
 
MARIANNA SUNNY 47 26 44 N3 30.17S  
TALLAHASSEE SUNNY 47 23 38 N3 30.17S  
PERRY SUNNY 50 24 36 N5 30.17S WCI 48  
CROSS CITY SUNNY 50 26 40 N3 30.20F  
GAINESVILLE SUNNY 51 24 34 N6 30.16F  
MAYPORT NAS SUNNY 48 25 40 N7 30.12F WCI 45  
JACKSONVILLE SUNNY 50 24 36 W9 30.12F WCI 46  
JAX NAS SUNNY 49 23 36 NW7 30.14S WCI 46  
JAX CRAIG SUNNY 49 23 36 NW7 30.13S WCI 46  
ST AUGUSTINE SUNNY 50 24 36 NW9 30.14S WCI 46  
 
STATION/POSITION
 
 
KEATON BEACH  
31.4N 80.9W  
ST AUGUSTINE  
 

 
FLZ040-043>046-052-053-057-058-063-131700-  
CENTRAL FLORIDA  
 
CITY SKY/WX TMP DP RH WIND PRES REMARKS
 
OCALA SUNNY 52 29 41 N8 30.15F  
LEESBURG SUNNY 53 31 42 N3 30.15F  
SANFORD SUNNY 55 32 41 NW7 30.13F  
ORLANDO EXEC SUNNY 56 28 34 NW6 30.13F  
ORLANDO INTL SUNNY 56 28 34 NW9 30.14S  
KISSIMMEE SUNNY 56 32 40 NW9 30.15S  
WINTER HAVEN SUNNY 55 33 43 N7 30.16F  
LAKELAND SUNNY 52 30 43 NW9 30.16S  
 

 
FLZ041-047-054-059-064-131700-  
EAST CENTRAL FLORIDA  
 
CITY SKY/WX TMP DP RH WIND PRES REMARKS
 
DAYTONA BEACH SUNNY 54 30 40 W10 30.13S  
JFK SPACE CTR SUNNY 55 35 46 N9 30.11F  
TITUSVILLE SUNNY 57 28 33 NW12 30.12F  
PATRICK AFB SUNNY 56 34 43 NW8 30.12S  
MELBOURNE SUNNY 58 34 40 NW8 30.12F  
VERO BEACH SUNNY 57 35 43 NW8 30.13F  
FT PIERCE SUNNY 58 35 42 N9 30.13F  
STUART SUNNY 61 34 36 NW8 30.14F  
 
STATION/POSITION
 
 

 
FLZ042-048>051-055-056-060-061-131700-  
WEST CENTRAL FLORIDA  
 
CITY SKY/WX TMP DP RH WIND PRES REMARKS
 
BROOKSVILLE SUNNY 55 28 35 W7 30.17S  
TAMPA SUNNY 58 31 35 NW10 30.17S  
MACDILL AFB SUNNY 56 32 40 N7 30.16S  
ST PETERSBURG SUNNY 57 40 52 N6 30.16S  
ST PET-WHITTED SUNNY 57 41 55 NE10 30.15S  
SARASOTA SUNNY 59 41 51 NE9 30.15S  
 
STATION/POSITION
 
 
CEDAR KEY  
VENICE  
 

 
FLZ062-065-066-069-070-075>078-131700-  
SOUTHWEST FLORIDA AND KEYS  
 
CITY SKY/WX TMP DP RH WIND PRES REMARKS
 
PUNTA GORDA SUNNY 59 39 47 N7 30.17F  
FT MYERS SUNNY 61 40 45 N10 30.14F  
SOUTHWEST INTL SUNNY 59 41 51 VRB7 30.15F  
NAPLES SUNNY 60 40 47 NE7 30.15S  
MARATHON SUNNY 64 46 52 N14G21 30.13S  
KEY WEST NAS SUNNY 65 55 70 N17 30.13F  
KEY WEST INTL SUNNY 65 53 65 N15 30.13F  
 
STATION/POSITION
 
 
VENICE  
SAND KEY  
MOLASSES REEF  
 

 
FLZ067-068-071>074-131700-  
SOUTHEAST FLORIDA  
 
CITY SKY/WX TMP DP RH WIND PRES REMARKS
 
W PALM BEACH SUNNY 60 34 37 NW10 30.13F  
POMPANO BEACH SUNNY 60 36 40 NW12 30.12F  
FT LAUDER-EXEC SUNNY 59 36 42 NW9 30.13F  
FT LAUDERDALE SUNNY 60 38 43 NW7 30.12F  
PEMBROKE PINES SUNNY 61 35 37 NW16 30.14F  
OPA LOCKA SUNNY 60 38 43 N13 30.14F  
MIAMI SUNNY 61 39 44 NW10 30.13F  
WEST KENDALL SUNNY 61 41 47 N9G17 30.13F  
HOMESTEAD SUNNY 61 42 49 N13 30.12F  
 
STATION/POSITION
 
 
LAKE WORTH  
FOWEY ROCKS  
SETTLEMENT POINT  
 

 
 
 
CLICK HERE TO GO TO PREVIOUS BULLETINS.

The Nexlab FL Page Main Text Page